Overview Statistics Trail Chart Weather Telemetry Raw packets
 

This is the latest recevied weather packets stored in our database for station/object KD8DNS. If no packets are shown the sender has not sent any weather packets the latest 10 day(s).

<< 76 77 78 79 80 81 82 >>
Time Temp. Humidity Pressure Rain* Wind** Luminosity Snow
1788121201 31.11° C 56% 1021.7 hPa 0 mm - 339 W/m² -
1788120913 31.11° C 57% 1021.7 hPa 0 mm - 494 W/m² -
1788120595 30.56° C 59% 1022.1 hPa 0 mm - 485 W/m² -
1788120294 30° C 59% 1022 hPa 0 mm - 314 W/m² -
1788119994 30.56° C 59% 1022.1 hPa 0 mm - 225 W/m² -
1788119690 30.56° C 59% 1022.2 hPa 0 mm - 264 W/m² -
1788119388 31.67° C 57% 1022.2 hPa 0 mm - 224 W/m² -
1788119087 31.67° C 56% 1022 hPa 0 mm - 216 W/m² -
1788118782 32.22° C 54% 1022.1 hPa 0 mm - 311 W/m² -
1788118481 32.78° C 52% 1022.5 hPa 0 mm - 374 W/m² -
1788118177 33.33° C 49% 1022.3 hPa 0 mm - 493 W/m² -
1788117872 32.78° C 52% 1022.4 hPa 0 mm - 580 W/m² -
1788117567 32.22° C 53% 1022.8 hPa 0 mm - 599 W/m² -
1788117267 32.22° C 53% 1022.7 hPa 0 mm - 345 W/m² -
1788116962 32.22° C 54% 1022.7 hPa 0 mm - 608 W/m² -
1788116657 32.22° C 52% 1023 hPa 0 mm - 476 W/m² -
1788116356 31.67° C 54% 1022.9 hPa 0 mm - 476 W/m² -
1788116052 31.67° C 54% 1023 hPa 0 mm - 356 W/m² -
1788115747 31.67° C 54% 1022.8 hPa 0 mm - 196 W/m² -
1788115446 32.78° C 51% 1022.8 hPa 0 mm - 300 W/m² -
1788115146 32.78° C 51% 1022.9 hPa 0 mm - 748 W/m² -
1788114840 32.78° C 52% 1023 hPa 0 mm - 476 W/m² -
1788114536 32.78° C 52% 1023.2 hPa 0 mm - 547 W/m² -
1788114232 32.22° C 51% 1023 hPa 0 mm - 704 W/m² -
1788113928 32.22° C 53% 1023.1 hPa 0 mm - 649 W/m² -

* Rain latest hour (hover to see other rain measurements)
** Current wind speed in m/s (hover to see current wind gust speed)